Weather observations for the past three days for
Guthrie, Guthrie Municipal Airport
| Date | Time (cdt) | Wind (kph) | Vis. (km) | Weather | Sky Cond. | Temperature (ºC) | Relative Humidity | Wind Chill (°C) | Heat Index (°C) | Pressure | Precipitation (cm) | ||||||
|---|---|---|---|---|---|---|---|---|---|---|---|---|---|---|---|---|---|
| Air | Dwpt | 6 hour | altimeter (cm) | sea level (mb) | 1 hr | 3 hr | 6 hr | ||||||||||
| Max. | Min. | ||||||||||||||||
| 09 | 12:53 | SE 13 | 16.09 | Fair | CLR | 28.9 | 6.7 | 28.9 | 11.1 | 25% | 28 | 75.82 | 1010.2 | ||||
| 09 | 11:53 | SE 15 G 28 | 16.09 | Fair | CLR | 27.8 | 7.8 | 28% | 27 | 75.87 | 1010.6 | ||||||
| 09 | 10:53 | SE 11 | 16.09 | Fair | CLR | 24.4 | 15 | 56% | 26 | 75.9 | 1011.1 | ||||||
| 09 | 09:53 | SW 6 | 16.09 | Fair | CLR | 19.4 | 15.6 | 79% | 75.9 | 1011.1 | |||||||
| 09 | 08:53 | Vrbl 6 | 8.05 | Fog/Mist | CLR | 12.8 | 11.7 | 93% | 75.87 | 1011.1 | |||||||
| 09 | 07:53 | Calm | 8.05 | Fog/Mist | OVC001 | 12.8 | 11.7 | 93% | 75.84 | 1010.7 | |||||||
| 09 | 06:53 | N 6 | 0.40 | Fog | VV002 | 11.1 | 9.4 | 15.6 | 10.6 | 89% | 75.79 | 1010.0 | |||||
| 09 | 05:53 | Vrbl 9 | 0.80 | Fog | VV001 | 11.1 | 10 | 93% | 75.77 | 1009.8 | |||||||
| 09 | 04:53 | Calm | 0.80 | Fog | VV001 | 13.3 | 12.2 | 93% | 75.79 | 1009.8 | |||||||
| 09 | 03:53 | Calm | 11.27 | Fair | CLR | 13.9 | 12.2 | 90% | 75.79 | 1009.9 | |||||||
| 09 | 02:53 | E 15 | 4.83 | Fog/Mist | CLR | 13.3 | 12.2 | 93% | 75.82 | 1010.2 | |||||||
| 09 | 01:53 | Vrbl 6 | 16.09 | Fair | CLR | 15.6 | 13.3 | 86% | 75.84 | 1010.4 | |||||||
| 09 | 00:53 | Calm | 14.48 | Fair | CLR | 15.6 | 13.3 | 23.9 | 15.6 | 86% | 75.84 | 1010.5 | |||||
| 08 | 23:53 | E 7 | 16.09 | Fair | CLR | 17.2 | 14.4 | 84% | 75.84 | 1010.4 | |||||||
| 08 | 22:53 | E 13 | 16.09 | NULL | NULL | 17.8 | 15.6 | 87% | 75.84 | 1010.5 | |||||||
| 08 | 21:53 | E 6 | 16.09 | NULL | NULL | 18.3 | 15.6 | 84% | 75.74 | 1009.0 | |||||||
| 08 | 20:53 | E 13 | 16.09 | NULL | NULL | 21.1 | 17.2 | 79% | 75.64 | 1007.9 | |||||||
| 08 | 19:53 | SE 11 | 16.09 | Fair | CLR | 22.8 | 17.8 | 74% | 75.57 | 1006.7 | |||||||
| 08 | 18:53 | Vrbl 9 | 16.09 | NULL | NULL | 23.3 | 17.2 | 31.1 | 20.6 | 69% | 75.46 | 1005.6 | 0.36 | ||||
| 08 | 17:53 | SE 11 | 11.27 | Thunderstorm Light Rain | SCT038 BKN065 BKN085 | 21.1 | 16.7 | 76% | 75.49 | 1006.0 | 0.36 | ||||||
| 08 | 16:53 | S 24 G 39 | 16.09 | Thunderstorm in Vicinity | CLR | 29.4 | 12.8 | 36% | 29 | 75.39 | 1004.3 | ||||||
| 08 | 15:53 | SW 20 G 33 | 16.09 | Fair | CLR | 30 | 12.8 | 35% | 29 | 75.51 | 1006.0 | ||||||
| 08 | 14:53 | SW 13 G 33 | 16.09 | Fair | CLR | 28.9 | 12.8 | 37% | 28 | 75.59 | 1007.1 | ||||||
| 08 | 13:53 | SW 15 G 44 | 16.09 | Fair | CLR | 28.3 | 13.3 | 40% | 28 | 75.67 | 1008.0 | ||||||
| 08 | 12:53 | SW 22 G 46 | 16.09 | Fair | CLR | 26.7 | 12.2 | 27.2 | 15.6 | 41% | 27 | 75.69 | 1008.5 | ||||
| 08 | 11:53 | SW 26 G 41 | 16.09 | Fair | CLR | 25 | 10.6 | 40% | 26 | 75.79 | 1009.8 | ||||||
| 08 | 10:53 | SW 30 G 69 | 16.09 | Fair | CLR | 24.4 | 8.9 | 37% | 25 | 75.84 | 1010.6 | ||||||
| 08 | 09:53 | SW 28 G 70 | 16.09 | Fair | CLR | 22.2 | 8.9 | 43% | 75.9 | 1011.3 | |||||||
| 08 | 08:53 | SW 26 G 43 | 16.09 | Fair | CLR | 20.6 | 8.9 | 47% | 75.95 | 1011.8 | |||||||
| 08 | 07:53 | SW 19 G 39 | 16.09 | Fair | CLR | 17.8 | 9.4 | 58% | 75.95 | 1011.9 | |||||||
| 08 | 06:53 | SW 13 | 16.09 | Fair | CLR | 15.6 | 9.4 | 16.1 | 14.4 | 67% | 75.95 | 1011.8 | |||||
| 08 | 05:53 | SW 7 | 16.09 | Fair | CLR | 15 | 9.4 | 69% | 75.95 | 1011.7 | |||||||
| 08 | 04:53 | S 13 | 16.09 | Fair | CLR | 15.6 | 9.4 | 67% | 75.9 | 1011.3 | |||||||
| 08 | 03:53 | S 19 | 16.09 | Fair | CLR | 15.6 | 8.3 | 62% | 75.9 | 1011.3 | |||||||
| 08 | 02:53 | S 17 | 16.09 | Fair | CLR | 15.6 | 7.8 | 60% | 75.92 | 1011.5 | |||||||
| 08 | 01:53 | S 19 | 16.09 | Fair | CLR | 15.6 | 6.1 | 53% | 75.97 | 1012.4 | |||||||
| 08 | 00:53 | S 17 | 16.09 | Fair | CLR | 16.1 | 5.6 | 25 | 15.6 | 50% | 76 | 1012.6 | |||||
| 07 | 23:53 | S 15 | 16.09 | Fair | CLR | 16.1 | 5.6 | 50% | 76 | 1012.7 | |||||||
| 07 | 22:53 | S 13 | 16.09 | Fair | CLR | 17.2 | 5 | 45% | 76.02 | 1013.1 | |||||||
| 07 | 21:53 | SE 15 | 16.09 | Fair | CLR | 18.3 | 4.4 | 40% | 76 | 1013.0 | |||||||
| 07 | 20:53 | S 11 | 16.09 | Fair | CLR | 18.9 | 5 | 40% | 75.97 | 1012.7 | |||||||
| 07 | 19:53 | S 11 | 16.09 | Fair | CLR | 21.7 | 3.9 | 31% | 75.95 | 1012.2 | |||||||
| 07 | 18:53 | S 9 | 16.09 | Fair | CLR | 25 | 1.1 | 25.6 | 21.1 | 21% | 25 | 75.95 | 1012.1 | ||||
| 07 | 17:53 | Vrbl 7 | 16.09 | Fair | CLR | 25.6 | 0 | 19% | 25 | 75.97 | 1012.6 | ||||||
| 07 | 16:53 | Calm | 16.09 | Fair | CLR | 25 | 0.6 | 20% | 25 | 76.02 | 1013.1 | ||||||
| 07 | 15:53 | W 13 | 16.09 | Fair | CLR | 24.4 | 1.1 | 22% | 25 | 76.07 | 1014.1 | ||||||
| 07 | 14:53 | Vrbl 11 G 35 | 16.09 | Fair | CLR | 23.9 | 0.6 | 22% | 25 | 76.17 | 1015.2 | ||||||
| 07 | 13:53 | Calm | 16.09 | Fair | CLR | 22.2 | 2.8 | 28% | 76.25 | 1016.2 | |||||||
| 07 | 12:53 | SW 19 G 31 | 16.09 | Fair | CLR | 21.1 | 3.3 | 21.1 | 5.6 | 31% | 76.3 | 1017.1 | |||||
| 07 | 11:53 | Vrbl 7 | 16.09 | Fair | CLR | 19.4 | 3.3 | 35% | 76.4 | 1018.2 | |||||||
| 07 | 10:53 | S 15 G 28 | 16.09 | Fair | CLR | 18.3 | 3.3 | 37% | 76.43 | 1018.8 | |||||||
| 07 | 09:53 | SW 13 | 16.09 | Fair | CLR | 16.1 | 4.4 | 46% | 76.5 | 1019.7 | |||||||
| 07 | 08:53 | Vrbl 7 | 16.09 | Fair | CLR | 12.2 | 5.6 | 64% | 76.53 | 1020.4 | |||||||
| 07 | 07:53 | Calm | 16.09 | Fair | CLR | 8.9 | 5 | 77% | 76.53 | 1020.4 | |||||||
| 07 | 06:53 | S 6 | 16.09 | NULL | NULL | 5.6 | 3.3 | 10.6 | 5.6 | 85% | 76.48 | 1019.6 | |||||
| 07 | 05:53 | Vrbl 7 | 16.09 | NULL | NULL | 6.1 | 3.9 | 86% | 5 | 76.45 | 1019.4 | ||||||
| 07 | 04:53 | Calm | 16.09 | Fair | CLR | 5.6 | 2.8 | 82% | 76.45 | 1019.3 | |||||||
| 07 | 03:53 | Calm | 16.09 | Fair | CLR | 5.6 | 3.3 | 85% | 76.43 | 1019.0 | |||||||
| 07 | 02:53 | Calm | 16.09 | Fair | CLR | 7.8 | 4.4 | 79% | 76.45 | 1019.2 | |||||||
| 07 | 01:53 | Calm | 16.09 | NULL | NULL | 7.8 | 3.9 | 77% | 76.43 | 1019.1 | |||||||
| 07 | 00:53 | N 6 | 16.09 | Overcast | OVC070 | 10.6 | 4.4 | 17.8 | 10 | 66% | 76.5 | 1019.9 | |||||
| 06 | 23:53 | Calm | 16.09 | Mostly Cloudy | BKN070 | 10.6 | 4.4 | 66% | 76.48 | 1019.5 | |||||||
| 06 | 22:53 | E 11 | 16.09 | Fair | CLR | 11.1 | 3.3 | 59% | 76.4 | 1018.4 | |||||||
| 06 | 21:53 | NE 9 | 16.09 | Fair | CLR | 12.2 | 3.9 | 57% | 76.38 | 1018.3 | |||||||
| 06 | 20:53 | Calm | 16.09 | A Few Clouds | FEW070 | 13.9 | 3.3 | 49% | 76.33 | 1017.6 | |||||||
| 06 | 19:53 | Vrbl 9 | 16.09 | Mostly Cloudy | BKN065 | 16.1 | 3.3 | 43% | 76.3 | 1017.1 | |||||||
| 06 | 18:53 | NE 11 | 16.09 | Overcast | OVC060 | 17.2 | 3.3 | 19.4 | 16.1 | 40% | 76.25 | 1016.5 | |||||
| 06 | 17:53 | NE 13 | 16.09 | A Few Clouds | FEW060 FEW110 | 19.4 | 3.9 | 36% | 76.2 | 1015.8 | |||||||
| 06 | 16:53 | NE 13 | 16.09 | Fair | CLR | 18.9 | 3.3 | 36% | 76.17 | 1015.4 | |||||||
| 06 | 15:53 | E 17 G 26 | 16.09 | Mostly Cloudy | BKN055 | 19.4 | 3.3 | 35% | 76.23 | 1015.9 | |||||||
| 06 | 14:53 | NE 13 G 31 | 16.09 | Overcast | OVC050 | 18.3 | 3.3 | 37% | 76.25 | 1016.4 | |||||||
| 06 | 13:53 | E 17 | 16.09 | Overcast | OVC046 | 16.7 | 4.4 | 44% | 76.3 | 1017.1 | |||||||
| Date | Time (cdt) | Wind (kph) | Vis. (km) | Weather | Sky Cond. | Air | Dwpt | Max. | Min. | Relative Humidity | Wind Chill (°C) | Heat Index (°C) | altimeter (cm) | sea level (mb) | 1 hr | 3 hr | 6 hr |
| 6 hour | |||||||||||||||||
| Temperature (ºC) | Pressure | Precipitation (cm) | |||||||||||||||